Weather History for Hurghada, Egypt

Change the Weather History Date:

Friday, March 8, 2013

  Actual Average Record
Temperature  
Mean Temperature 68 °F -  
Max Temperature 84 °F 77 °F 93 °F (2014)
Min Temperature 53 °F 60 °F 53 °F (2004)
Cooling Degree Days 4    
Growing Degree Days 18 (Base 50)    
Moisture  
Dew Point 55 °F    
Average Humidity 64    
Maximum Humidity 88    
Minimum Humidity 32    
Precipitation  
Precipitation 0.00 in - - ()
Sea Level Pressure  
Sea Level Pressure 29.85 in    
Wind  
Wind Speed 4 mph ()    
Max Wind Speed 14 mph    
Max Gust Speed -    
Visibility 6.0 miles    
Events      
Averages and records for this station are not official NWS values.
T = Trace of Precipitation, MM = Missing Value Source: Averaged Metar Reports

Daily Weather History Graph

Daily Weather History Graph

Search for Another Location

Airport:

Trip Planner

Search our weather history database for the weather conditions in past years. The results will help you decide how hot, cold, wet, or windy it might be!

Date:

Astronomy

Mar. 08, 2013 Rise Set
Actual Time 6:01 AM EET 5:49 PM EET
Civil Twilight 5:38 AM EET 6:12 PM EET
Nautical Twilight 5:11 AM EET 6:39 PM EET
Astronomical Twilight 4:44 AM EET 7:06 PM EET
Moon 3:15 AM EET (3/8) 2:36 PM EET (3/8)
Length of Visible Light 12h 34m
Length of Day
11h 47m
Waning Crescent, 14% of the Moon is Illuminated
Mar 8
Waning Crescent
Mar 11
New
Mar 19
First Quarter
Mar 27
Full
Apr 3
Last Quarter

Hourly Weather History & Observations

Time (EET) Temp. Heat Index Dew Point Humidity Pressure Visibility Wind Dir Wind Speed Gust Speed Precip Events Conditions
12:00 AM 57.2 °F - 48.2 °F 72% 29.92 in - Calm Calm - N/A   Clear
1:00 AM 55.4 °F - 46.4 °F 72% 29.92 in - Calm Calm - N/A   Clear
2:00 AM 54 °F - 44 °F 60% 29.91 in 6 mi WSW 4.6 mph - -  
2:00 AM 53.6 °F - 44.6 °F 72% 29.89 in - WSW 4.6 mph - N/A   Clear
3:00 AM 55.4 °F - 44.6 °F 67% 29.89 in - WSW 4.6 mph - N/A   Clear
4:00 AM 55.4 °F - 46.4 °F 72% 29.86 in - WSW 4.6 mph - N/A   Clear
5:00 AM 53.6 °F - 46.4 °F 77% 29.89 in - WSW 2.3 mph - N/A   Clear
6:00 AM 53.6 °F - 46.4 °F 77% 29.89 in - West 2.3 mph - N/A   Clear
7:00 AM 55.4 °F - 48.2 °F 77% 29.89 in - Calm Calm - N/A   Clear
8:00 AM 64 °F - 54 °F 60% 29.91 in 6 mi Calm Calm - -  
8:00 AM 64.4 °F - 53.6 °F 68% 29.89 in - Calm Calm - N/A   Clear
9:00 AM 73.4 °F - 59.0 °F 61% 29.89 in - SSE 5.8 mph - N/A   Clear
10:00 AM 77.0 °F - 57.2 °F 50% 29.89 in - ESE 12.7 mph - N/A   Clear
11:00 AM 82.4 °F 82.0 °F 57.2 °F 42% 29.89 in - ESE 9.2 mph - N/A   Clear
12:00 PM 82.4 °F - 50.0 °F 32% 29.86 in - ESE 12.7 mph - N/A   Clear
1:00 PM 84.2 °F 82.8 °F 53.6 °F 35% 29.83 in - East 8.1 mph - N/A   Clear
2:00 PM 83 °F - 60 °F 35% 29.81 in 6 mi ESE 13.8 mph - -   Clear
2:00 PM 84.2 °F 84.4 °F 60.8 °F 45% 29.80 in - ESE 13.8 mph - N/A   Clear
3:00 PM 80.6 °F 81.5 °F 60.8 °F 51% 29.80 in - East 12.7 mph - N/A   Clear
4:00 PM 78.8 °F - 62.6 °F 57% 29.77 in - SE 6.9 mph - N/A   Clear
5:00 PM 75.2 °F - 62.6 °F 65% 29.80 in - SSE 6.9 mph - N/A   Clear
6:00 PM 73.4 °F - 62.6 °F 69% 29.80 in - SSE 4.6 mph - N/A   Clear
7:00 PM 73.4 °F - 64.4 °F 73% 29.80 in - SSE 3.5 mph - N/A   Clear
8:00 PM 72 °F - 64 °F 68% 29.82 in 6 mi Calm Calm - -   Clear
8:00 PM 71.6 °F - 64.4 °F 78% 29.80 in - Calm Calm - N/A   Clear
9:00 PM 71.6 °F - 64.4 °F 78% 29.83 in - North 4.6 mph - N/A   Clear
10:00 PM 68.0 °F - 62.6 °F 83% 29.83 in - NW 6.9 mph - N/A   Clear
11:00 PM 66.2 °F - 62.6 °F 88% 29.83 in - NW 4.6 mph - N/A   Clear